Weather Roundup
Issued by NWS Corpus Christi, TX

Home | Current Version | Previous Version | Text Only | Print | Product List | Glossary On
Versions: 1 2 3 4 5 6 7 8 9 10 11 12 13 14 15 16 17 18 19 20 21 22 23 24 25 26 27 28 29 30 31 32 33 34 35 36 37 38 39 40 41 42 43 44 45 46 47 48 49 50
000
ASUS44 KCRP 281710
HRRCRP

SOUTH TEXAS REGIONAL WEATHER ROUNDUP
NATIONAL WEATHER SERVICE CORPUS CHRISTI TX
1100 AM CST WED JAN 28 2015


TXZ229>244-281800-
...CORPUS CHRISTI AREA OBSERVATIONS...

CITY           SKY/WX    TMP DP  RH WIND       PRES   REMARKS
CORPUS CHRISTI MOSUNNY   64  59  83 S13       30.21S
NAS CORPUS CHR MOSUNNY   70  61  73 S14       30.21S
ROCKPORT       SUNNY     70  54  56 NW3       30.21S
KINGSVILLE NAS PTSUNNY   67  59  75 S9        30.21S
ALICE            N/A    N/A N/A N/A MISG      30.19S
FALFURRIAS     SUNNY     72  49  44 S10       30.20S
$$

...VICTORIA AREA OBSERVATIONS...

CITY           SKY/WX    TMP DP  RH WIND       PRES   REMARKS
VICTORIA       SUNNY     71  46  40 SW8       30.21S
BEEVILLE       FAIR      71  44  37 S10       30.20S
PLEASANTON     SUNNY     68  41  36 CALM      30.20S
SAN ANTONIO    MOSUNNY   73  37  27 S10       30.20R
$$

...LAREDO AREA OBSERVATIONS...

CITY           SKY/WX    TMP DP  RH WIND       PRES   REMARKS
LAREDO         SUNNY     72  45  37 S6        30.20
COTULLA        SUNNY     71  43  36 SE3       30.19R
DEL RIO        SUNNY     65  40  39 SE5       30.17F
MCALLEN        SUNNY     72  58  61 SE16G25   30.20S
HEBBRONVILLE   SUNNY     74  35  24 S8        30.19S
$$

...OTHER TEXAS OBSERVATIONS...

CITY           SKY/WX    TMP DP  RH WIND       PRES   REMARKS
BROWNSVILLE    SUNNY     72  62  71 S16       30.21S
HOUSTON        MOSUNNY   71  46  40 SE5       30.22S
COL. STATION   SUNNY     69  43  38 S7        30.19S
AUSTIN         MOSUNNY   74  45  35 SW9       30.17F
WACO           SUNNY     67  45  45 S5        30.15F
FORT WORTH     MOSUNNY   69  41  36 S10       30.11S
WICHITA FALLS  MOSUNNY   66  40  38 SW16      30.03F
LUBBOCK        PTSUNNY   63  42  46 W15       30.12R
EL PASO        MOSUNNY   55  41  59 N3        30.25R
$$

...MARINE OBSERVATIONS...

STATION/POSITION TIME  SKY/WX   TEMP    WIND        PRES    VSBY  WAVE   SWELL
                                AIR SEA DIR/SP/G                  HT/PER HT/PER
                 (UTC)          (F)     (DEG/KT/KT) (MB)    (MI)  (FT/S) (FT/S)
PORT ARANSAS     1700            61 59  180/  6/  7 1023.9R
BUOY 90 E PORT A 1700            69 69  240/  2/  4 1024.2R         1/ 4
BUOY 45 SE BAFFI 1700            67 69  190/ 12/ 14 1023.1R         1/ 3
BUOY 200 E PT IS 1700            70 72   CALM  /  2 1024.1R         1/ 4   2/ 4
BUOY 15 E GALVES 1700            57 57  110/  4/  4 1023.9R         1/ 5
$$



USA.gov is the U.S. government's official web portal to all federal, state and local government web resources and services.